COSMOS 2251 DEB

Satellite information

Favourite Embed

Satellite Type and Status

DEBRISIN ORBIT

Key statistics

Satellite COSMOS 2251 DEB at a glance.

Uptime

11816

Days in orbit

Revolutions

≈ 14.4

Per day

Orbit

LEO

Low Earth Orbit

Inclination

74.0

Latest

Satellite identification and parameters

Extended collection of information and parameters for COSMOS 2251 DEB.

Object identification

Identified? True

Debris? True

Object name: COSMOS 2251 DEB

International designator: 1993-036ALK

Object number (NORAD): 35465

Object ID (CCSDS): 35465

Country: COMMONWEALTH OF INDEPENDENT STATES (CIS)

Current information (Y/N): Y

RCS size: SMALL

Orbital parameters

Period: 99.72 minutes

Inclination: 73.9998 deg

SMA: 7123.331 km

Apoapsis: 789.967 km

Periapsis: 700.425 km

RAAN: 314.3908 deg

Eccentricy: 0.00628516

Argument of periapsis: 131.2083 deg

Mean anomaly: 229.4517 deg

Mean motion: 14.44036125 rev/day

Mean motion (dot): 0.00001275 rev/day2

B* drag term: 0.00037177593 1/REarth

Two-line elements (TLE)

Creation date: Oct. 11, 2025, 2:58 a.m.

Reference frame: TEME

Reference center: EARTH

Epoch: Oct. 10, 2025, 7:07 p.m. UTC

TLE line 0: 0 COSMOS 2251 DEB

TLE line 1: 1 35465U 93036ALK 25283.79665821 .00001275 00000-0 37178-3 0 9992

TLE line 2: 2 35465 73.9998 314.3908 0062852 131.2083 229.4517 14.44036125863332

Live tracking on map

Real-time ground track for satellite COSMOS 2251 DEB.

In-orbit conjunctions

A list of the most updated potential collisions computed for object COSMOS 2251 DEB.

Target Orbit TCA Probability of collision Miss distance Type
FENGYUN 1C DEB SSO 2025-05-25 17:53:25 0.00013483 199.0 (m) DEBRIS
FEDSAT SSO 2024-12-01 15:31:24 0.0001259343 415.0 (m) PAYLOAD
CZ-6A DEB LEO 2024-11-16 14:25:50 0.0002905361 311.0 (m) DEBRIS

Associated space launch

Military communications satellite. Destroyed in a collision with Iridium 33.

COSMOS 2251 DEB was lifted into orbit during the mission ‘Kosmos-3M | Strela-2M 51’, on board a Kosmos-3M space rocket.

The launch took place on June 16, 1993, 4:17 a.m. from 132/1 (132L).

For more information about the launch, click the button.

Launch to space Kosmos-3M | Strela-2M 51
Kosmos-3M | Strela-2M 51

Agency: N/A

Status: Launch Successful

Launch date: June 16, 1993, 4:17 a.m. UTC

Rocket: Kosmos-3M

Launch pad: 132/1 (132L)

Location: Plesetsk Cosmodrome, Russian Federation

...

Latest news about this satellite

There are no fresh news available about this satellite. Check back as we update our databases every day.


Newsletter sign-up

Weekly statistics, charts and insights to help you stay on top of the space industry.